Location: Amarillo Post Office Jordan Station
(35.1907°N, 101.9342°W)
Time: 12:57:59
(UTC+00:00)

H-2A R/B - Pass Details

Date: 24 January 2021
Orbit: 529 x 651 km, 98.3° (Epoch: 03 March)

Event Time Altitude Azimuth Distance (km) Brightness Sun altitude
Rises 12:39:32 0° 19° (NNE) 2,971 6.1 -14.9°
Reaches altitude 10° 12:41:49 10° 24° (NNE) 2,061 5.4 -14.4°
Maximum altitude 12:46:12 50° 100° (E) 831 3.7 -13.6°
Drops below altitude 10° 12:50:32 10° 176° (S) 2,037 5.5 -12.7°
Sets 12:52:46 0° 181° (S) 2,933 6.2 -12.3°
